Alice Springs, Australia

11:52 AM ACST on October 15, 2019 (GMT +0930)
Alice Springs

Weather History for YBAS - August, 2019

Change the Weather History Date:

Saturday, August 24, 2019

  Actual Average Record
Temperature  
Mean Temperature 58 °F -  
Max Temperature 79 °F 78 °F 87 °F (1999)
Min Temperature 38 °F 49 °F 35 °F (2001)
Degree Days  
Heating Degree Days 6    
Growing Degree Days 8 (Base 50)    
Moisture  
Dew Point 17 °F    
Average Humidity 19    
Maximum Humidity 45    
Minimum Humidity 4    
Precipitation  
Precipitation 0.00 in 0.01 in - ()
Sea Level Pressure  
Sea Level Pressure 30.11 in    
Wind  
Wind Speed 4 mph ()    
Max Wind Speed 8 mph    
Max Gust Speed -    
Visibility 6.2 miles    
Events      
Averages and records for this station are not official NWS values.
T = Trace of Precipitation, MM = Missing Value Source: Averaged Metar Reports

Daily Weather History Graph

Daily Weather History Graph

Search for Another Location

Airport or City:

Astronomy

Aug. 24, 2019 Rise Set
Actual Time 6:53 AM ACST 6:20 PM ACST
Civil Twilight 6:30 AM ACST 6:43 PM ACST
Nautical Twilight 6:04 AM ACST 7:10 PM ACST
Astronomical Twilight 5:37 AM ACST 7:36 PM ACST
Moon 12:54 AM ACST (8/24) 12:13 PM ACST (8/24)
Length of Visible Light 12h 13m
Length of Day
11h 27m
Last Quarter, 45% of the Moon is Illuminated
Aug 24
Last Quarter
Aug 30
New
Sep 6
First Quarter
Sep 14
Full
Sep 22
Last Quarter

Hourly Weather History & Observations

Time (ACST) Temp. Windchill Dew Point Humidity Pressure Visibility Wind Dir Wind Speed Gust Speed Precip Events Conditions
12:00 AM 50 °F - 21 °F 20% 30.13 in - West 4.6 mph - -   Clear
12:00 AM 50.0 °F - 21.2 °F 32% 30.15 in 6.2 mi West 4.6 mph - N/A   Unknown
12:30 AM 48.2 °F - 21.2 °F 34% 30.15 in 6.2 mi West 5.8 mph - N/A   Unknown
1:30 AM 46.4 °F 43.5 °F 21.2 °F 37% 30.12 in 6.2 mi NNW 5.8 mph - N/A   Unknown
2:00 AM 44.6 °F 41.4 °F 17.6 °F 34% 30.12 in 6.2 mi North 5.8 mph - N/A   Unknown
2:30 AM 43 °F - 20 °F 27% 30.11 in - Calm Calm - -  
2:30 AM 42.8 °F - 19.4 °F 39% 30.12 in 6.2 mi Calm Calm - N/A   Unknown
3:00 AM 44.6 °F - 21.2 °F 39% 30.12 in 6.2 mi Calm Calm - N/A   Unknown
3:30 AM 43 °F - 24 °F 34% 30.10 in - Calm Calm - -  
4:00 AM 42.8 °F 40.1 °F 21.2 °F 42% 30.12 in 6.2 mi West 4.6 mph - N/A   Unknown
4:30 AM 41.0 °F 38.0 °F 19.4 °F 42% 30.12 in 6.2 mi SW 4.6 mph - N/A   Unknown
5:30 AM 40 °F - 19 °F 29% 30.12 in - West 6.9 mph - -  
5:30 AM 41.0 °F 36.4 °F 19.4 °F 42% 30.12 in 6.2 mi West 6.9 mph - N/A   Unknown
6:00 AM 42 °F - 22 °F 31% 30.12 in - NW 6.9 mph - -   Clear
6:00 AM 42.8 °F 38.6 °F 21.2 °F 42% 30.12 in 6.2 mi NW 6.9 mph - N/A   Unknown
6:30 AM 41 °F - 21 °F 31% 30.13 in - NNW 5.8 mph - -  
6:30 AM 41.0 °F 37.1 °F 21.2 °F 45% 30.15 in 6.2 mi NNW 5.8 mph - N/A   Unknown
7:00 AM 39.2 °F 34.2 °F 19.4 °F 45% 30.15 in 6.2 mi SW 6.9 mph - N/A   Unknown
7:30 AM 42.8 °F 40.1 °F 21.2 °F 42% 30.15 in 6.2 mi West 4.6 mph - N/A   Unknown
8:00 AM 50.0 °F - 24.8 °F 37% 30.15 in 6.2 mi NW 6.9 mph - N/A   Unknown
8:30 AM 57 °F - 27 °F 19% 30.16 in - NNW 5.8 mph - -  
8:30 AM 57.2 °F - 26.6 °F 31% 30.15 in 6.2 mi NNW 5.8 mph - N/A   Unknown
9:00 AM 60 °F - 27 °F 17% 30.16 in - West 2.3 mph - -   Clear
9:00 AM 60.8 °F - 26.6 °F 27% 30.18 in 6.2 mi West 2.3 mph - N/A   Unknown
9:30 AM 66 °F - 28 °F 14% 30.16 in - Calm Calm - -  
9:30 AM 66.2 °F - 28.4 °F 24% 30.15 in 6.2 mi Calm Calm - N/A   Unknown
10:00 AM 68.0 °F - 28.4 °F 23% 30.18 in 6.2 mi North 6.9 mph - N/A   Unknown
10:30 AM 71.6 °F - 24.8 °F 17% 30.15 in 6.2 mi NNW 5.8 mph - N/A   Unknown
11:00 AM 73.4 °F - 24.8 °F 16% 30.15 in 6.2 mi NNW 4.6 mph - N/A   Unknown
11:30 AM 75 °F - 19 °F 5% 30.13 in - West 5.8 mph - -  
11:30 AM 75.2 °F - 19.4 °F 12% 30.15 in 6.2 mi West 5.8 mph - N/A   Unknown
12:00 PM 76 °F - 15 °F 4% 30.12 in - West 5.8 mph - -   Clear
12:00 PM 75.2 °F - 15.8 °F 11% 30.12 in 6.2 mi West 5.8 mph - N/A   Unknown
12:30 PM 75 °F - 17 °F 5% 30.10 in - West 5.8 mph - -  
12:30 PM 75.2 °F - 17.6 °F 11% 30.12 in 6.2 mi West 5.8 mph - N/A   Unknown
1:30 PM 77.0 °F - 14.0 °F 9% 30.09 in 6.2 mi SSE 5.8 mph - N/A   Unknown
2:00 PM 77.0 °F - 14.0 °F 9% 30.06 in 6.2 mi ENE 3.5 mph - N/A   Unknown
2:30 PM 77 °F - 14 °F 4% 30.04 in - SW 6.9 mph - -  
2:30 PM 77.0 °F - 14.0 °F 9% 30.06 in 6.2 mi SW 6.9 mph - N/A   Unknown
3:00 PM 79 °F - 13 °F 4% 30.03 in - South 8.1 mph - -   Clear
3:00 PM 78.8 °F - 12.2 °F 8% 30.04 in 6.2 mi South 8.1 mph - N/A   Unknown
3:30 PM 78 °F - 15 °F 4% 30.03 in - SW 6.9 mph - -  
3:30 PM 78.8 °F - 14.0 °F 9% 30.04 in 6.2 mi SW 6.9 mph - N/A   Unknown
4:00 PM 78.8 °F - 12.2 °F 8% 30.04 in 6.2 mi South 5.8 mph - N/A   Unknown
4:30 PM 78.8 °F - 12.2 °F 8% 30.04 in 6.2 mi SW 8.1 mph - N/A   Unknown
5:00 PM 77.0 °F - 12.2 °F 9% 30.04 in 6.2 mi SSW 8.1 mph - N/A   Unknown
5:30 PM 77.0 °F - 12.2 °F 9% 30.06 in 6.2 mi SSE 6.9 mph - N/A   Unknown
6:00 PM 76 °F - 10 °F 4% 30.04 in - SSE 6.9 mph - -   Clear
6:00 PM 75.2 °F - 10.4 °F 8% 30.06 in 6.2 mi SSE 6.9 mph - N/A   Unknown
6:30 PM 71 °F - 11 °F 4% 30.05 in - SSE 6.9 mph - -  
6:30 PM 71.6 °F - 12.2 °F 10% 30.06 in 6.2 mi SSE 6.9 mph - N/A   Unknown
7:30 PM 66.2 °F - 10.4 °F 11% 30.09 in 6.2 mi SE 6.9 mph - N/A   Unknown
8:00 PM 64.4 °F - 10.4 °F 12% 30.09 in 6.2 mi SE 4.6 mph - N/A   Unknown
8:30 PM 57 °F - 7 °F 6% 30.09 in - South 3.5 mph - -  
8:30 PM 57.2 °F - 6.8 °F 13% 30.09 in 6.2 mi South 3.5 mph - N/A   Unknown
9:00 PM 59 °F - 10 °F 6% 30.10 in - South 1.2 mph - -   Clear
9:00 PM 59.0 °F - 10.4 °F 15% 30.12 in 6.2 mi South 1.2 mph - N/A   Unknown
9:30 PM 60 °F - 11 °F 6% 30.11 in - Calm Calm - -  
9:30 PM 59.0 °F - 10.4 °F 15% 30.12 in 6.2 mi Calm Calm - N/A   Unknown
10:30 PM 57.2 °F - 10.4 °F 16% 30.12 in 6.2 mi North 5.8 mph - N/A   Unknown
11:30 PM 53 °F - 12 °F 9% 30.11 in - NNW 4.6 mph - -  
11:30 PM 53.6 °F - 12.2 °F 19% 30.12 in 6.2 mi NNW 4.6 mph - N/A   Unknown